Location: Brighton Point
(40.6144°N, 111.7933°W)
Time: 12:56:53
(UTC+00:00)

Hubble Space Telescope - Pass Details

Date: 08 March 2021
Orbit: 535 x 539 km, 28.5° (Epoch: 10 April)

Event Time Altitude Azimuth Distance (km) Brightness Sun altitude
Rises 02:19:00 0° 229° (SW) 2,662 5.1 -10.9°
Reaches altitude 10° 02:22:15 10° 202° (SSW) 1,773 3.7 -11.5°
Maximum altitude 02:24:17 13° 172° (S) 1,566 3.0 -11.9°
Drops below altitude 10° 02:26:18 10° 142° (SE) 1,774 3.0 -12.3°
Enters shadow 02:26:31 - 140° (SE) 1,816 3.1 -12.3°
